Location: Bacea
(45.9500°N, 22.6667°E)
Time: 09:28:07
(UTC+00:00)

Cosmos 489 Rocket - Pass Details

Date: 28 May 2022
Orbit: 952 x 983 km, 74.0° (Epoch: 02 July)

Event Time Altitude Azimuth Distance (km) Brightness Sun altitude
Rises 23:21:09 0° 347° (NNW) 3,644 8.6 -21.3°
Reaches altitude 10° 23:25:54 10° 20° (NNE) 2,699 8.0 -21.1°
Maximum altitude 23:27:56 12° 39° (NE) 2,585 7.6 -21.1°
Drops below altitude 10° 23:29:58 10° 58° (ENE) 2,701 7.5 -21.0°
Sets 23:34:42 0° 90° (E) 3,651 7.7 -20.7°
